| time (UTC) | temp F | wind direction | speed MPH | gust MPH | rain 1hr in | rain 24hr in | rain mn in | humidity % | barometer mb |
| 20260905143009 | 67 | 250 | 18.0 | 0.0 | 0.00 | 0.00 | 0.00 | 57 | 1009.6 |
| 20260905141510 | 67 | 250 | 18.0 | 0.0 | 0.00 | 0.00 | 0.00 | 56 | 1009.8 |
| 20260905140009 | 67 | 260 | 21.0 | 0.0 | 0.00 | 0.00 | 0.00 | 56 | 1009.8 |
| 20260905134509 | 70 | 260 | 21.0 | 0.0 | 0.00 | 0.00 | 0.00 | 53 | 1009.4 |
| 20260905133010 | 70 | 250 | 15.0 | 0.0 | 0.00 | 0.00 | 0.00 | 53 | 1009.4 |
| 20260905131509 | 69 | 250 | 15.0 | 0.0 | 0.00 | 0.00 | 0.00 | 56 | 1009.6 |
| 20260905130010 | 69 | 260 | 14.0 | 0.0 | 0.00 | 0.00 | 0.00 | 56 | 1009.6 |
| 20260905124510 | 68 | 260 | 14.0 | 0.0 | 0.00 | 0.00 | 0.00 | 57 | 1009.7 |
| 20260905123009 | 68 | 260 | 17.0 | 0.0 | 0.00 | 0.00 | 0.00 | 57 | 1009.7 |
| 20260905121509 | 68 | 260 | 17.0 | 0.0 | 0.00 | 0.00 | 0.00 | 54 | 1009.6 |
| 20260905120010 | 68 | 270 | 17.0 | 0.0 | 0.00 | 0.00 | 0.00 | 54 | 1009.6 |
| 20260905114510 | 69 | 270 | 17.0 | 0.0 | 0.00 | 0.00 | 0.00 | 52 | 1009.4 |
| 20260905113009 | 69 | 260 | 13.0 | 0.0 | 0.00 | 0.00 | 0.00 | 52 | 1009.4 |
| 20260905111509 | 67 | 260 | 13.0 | 0.0 | 0.00 | 0.00 | 0.00 | 60 | 1009.6 |
| 20260905110009 | 67 | 250 | 11.0 | 0.0 | 0.00 | 0.00 | 0.00 | 60 | 1009.6 |
| 20260905104509 | 67 | 250 | 11.0 | 0.0 | 0.00 | 0.00 | 0.00 | 56 | 1009.7 |
| 20260905103009 | 67 | 260 | 17.0 | 0.0 | 0.00 | 0.00 | 0.00 | 56 | 1009.7 |
| 20260905101510 | 67 | 260 | 17.0 | 0.0 | 0.00 | 0.00 | 0.00 | 58 | 1009.7 |
| 20260905100009 | 67 | 260 | 15.0 | 0.0 | 0.00 | 0.00 | 0.00 | 58 | 1009.7 |
| 20260905094509 | 66 | 260 | 13.0 | 0.0 | 0.00 | 0.00 | 0.00 | 61 | 1009.5 |
| 20260905093010 | 66 | 260 | 13.0 | 0.0 | 0.00 | 0.00 | 0.00 | 61 | 1009.5 |
| 20260905091509 | 65 | 260 | 13.0 | 0.0 | 0.00 | 0.00 | 0.00 | 67 | 1009.5 |
| 20260905090010 | 65 | 270 | 13.0 | 0.0 | 0.00 | 0.00 | 0.00 | 67 | 1009.5 |
| 20260905084509 | 63 | 270 | 11.0 | 0.0 | 0.00 | 0.00 | 0.00 | 70 | 1009.2 |
| 20260905083009 | 63 | 270 | 11.0 | 0.0 | 0.00 | 0.00 | 0.00 | 70 | 1009.2 |
| 20260905081510 | 62 | 270 | 11.0 | 0.0 | 0.00 | 0.00 | 0.00 | 71 | 1008.9 |
| 20260905080010 | 62 | 250 | 12.0 | 0.0 | 0.00 | 0.00 | 0.00 | 71 | 1008.9 |
| 20260905074510 | 61 | 250 | 12.0 | 0.0 | 0.00 | 0.00 | 0.00 | 74 | 1008.8 |
| 20260905073009 | 61 | 260 | 11.0 | 0.0 | 0.00 | 0.00 | 0.00 | 74 | 1008.8 |
| 20260905071509 | 60 | 260 | 11.0 | 0.0 | 0.00 | 0.00 | 0.00 | 77 | 1008.6 |
| 20260905070009 | 60 | 260 | 11.0 | 0.0 | 0.00 | 0.00 | 0.00 | 77 | 1008.6 |
| 20260905064510 | 59 | 260 | 11.0 | 0.0 | 0.00 | 0.00 | 0.00 | 79 | 1008.3 |
| 20260905063010 | 59 | 260 | 11.0 | 0.0 | 0.00 | 0.00 | 0.00 | 79 | 1008.3 |
| 20260905061510 | 58 | 260 | 10.0 | 0.0 | 0.00 | 0.00 | 0.00 | 81 | 1008.0 |
| 20260905060009 | 58 | 260 | 10.0 | 0.0 | 0.00 | 0.00 | 0.00 | 81 | 1008.0 |
| 20260905054510 | 58 | 260 | 10.0 | 0.0 | 0.00 | 0.00 | 0.00 | 82 | 1007.9 |
| 20260905053021 | 58 | 260 | 11.0 | 0.0 | 0.00 | 0.00 | 0.00 | 82 | 1007.9 |
| 20260905051509 | 58 | 260 | 11.0 | 0.0 | 0.00 | 0.00 | 0.00 | 82 | 1007.5 |
| 20260905050010 | 58 | 260 | 10.0 | 0.0 | 0.00 | 0.00 | 0.00 | 82 | 1007.5 |
| 20260905044509 | 59 | 260 | 10.0 | 0.0 | 0.00 | 0.00 | 0.00 | 81 | 1007.3 |
| 20260905043010 | 59 | 260 | 10.0 | 0.0 | 0.00 | 0.00 | 0.00 | 81 | 1007.3 |
| 20260905041509 | 59 | 260 | 11.0 | 0.0 | 0.00 | 0.00 | 0.00 | 81 | 1007.0 |
| 20260905040009 | 59 | 260 | 11.0 | 0.0 | 0.00 | 0.00 | 0.00 | 81 | 1007.0 |
| 20260905034510 | 59 | 260 | 9.0 | 0.0 | 0.00 | 0.00 | 0.00 | 81 | 1006.6 |
| 20260905033010 | 59 | 260 | 9.0 | 0.0 | 0.00 | 0.00 | 0.00 | 81 | 1006.6 |
| 20260905031510 | 60 | 260 | 9.0 | 0.0 | 0.00 | 0.00 | 0.00 | 82 | 1006.4 |
| 20260905030008 | 60 | 260 | 10.0 | 0.0 | 0.00 | 0.00 | 0.00 | 82 | 1006.4 |
| 20260904204510 | 62 | 250 | 11.0 | 0.0 | 0.00 | 0.00 | 0.00 | 90 | 1002.7 |
| 20260904203009 | 62 | 260 | 10.0 | 0.0 | 0.00 | 0.00 | 0.00 | 90 | 1002.7 |
| 20260904201510 | 62 | 260 | 10.0 | 0.0 | 0.00 | 0.00 | 0.00 | 90 | 1002.5 |
| 20260904200009 | 62 | 260 | 10.0 | 0.0 | 0.00 | 0.00 | 0.00 | 90 | 1002.5 |
| 20260904193009 | 61 | 240 | 11.0 | 0.0 | 0.00 | 0.00 | 0.00 | 91 | 1002.7 |
| 20260904191509 | 61 | 240 | 11.0 | 0.0 | 0.00 | 0.00 | 0.00 | 91 | 1001.8 |
| 20260904190009 | 61 | 250 | 10.0 | 0.0 | 0.00 | 0.00 | 0.00 | 91 | 1001.8 |
| 20260904184509 | 63 | 230 | 10.0 | 0.0 | 0.00 | 0.00 | 0.00 | 87 | 1001.7 |
| 20260904183010 | 63 | 230 | 10.0 | 0.0 | 0.00 | 0.00 | 0.00 | 87 | 1001.7 |
| 20260904181509 | 64 | 240 | 12.0 | 0.0 | 0.00 | 0.00 | 0.00 | 84 | 1001.5 |
| 20260904180009 | 64 | 240 | 12.0 | 0.0 | 0.00 | 0.00 | 0.00 | 84 | 1001.5 |
| 20260904174509 | 65 | 240 | 12.0 | 0.0 | 0.00 | 0.00 | 0.00 | 80 | 1001.3 |
| 20260904173010 | 65 | 260 | 12.0 | 0.0 | 0.00 | 0.00 | 0.00 | 80 | 1001.3 |
| 20260904171509 | 66 | 260 | 12.0 | 0.0 | 0.00 | 0.00 | 0.00 | 82 | 1001.3 |
| 20260904170010 | 66 | 260 | 13.0 | 0.0 | 0.00 | 0.00 | 0.00 | 82 | 1001.3 |
| 20260904164509 | 67 | 260 | 13.0 | 0.0 | 0.00 | 0.00 | 0.00 | 89 | 1001.1 |
| 20260904163010 | 67 | 270 | 13.0 | 0.0 | 0.00 | 0.00 | 0.00 | 89 | 1001.1 |
| 20260904161510 | 68 | 270 | 13.0 | 0.0 | 0.00 | 0.00 | 0.00 | 87 | 1000.9 |
| 20260904160009 | 68 | 280 | 16.0 | 0.0 | 0.00 | 0.00 | 0.00 | 87 | 1000.9 |
| 20260904154511 | 67 | 280 | 16.0 | 0.0 | 0.00 | 0.00 | 0.00 | 91 | 1000.1 |
| 20260904153009 | 67 | 280 | 22.0 | 0.0 | 0.00 | 0.00 | 0.00 | 91 | 1000.1 |
| 20260904151509 | 78 | 280 | 22.0 | 0.0 | 0.00 | 0.00 | 0.00 | 55 | 998.7 |
| 20260904150010 | 78 | 250 | 15.0 | 0.0 | 0.00 | 0.00 | 0.00 | 55 | 998.7 |
| 20260904144510 | 78 | 250 | 15.0 | 0.0 | 0.00 | 0.00 | 0.00 | 57 | 998.9 |